Mountain Home, Arkansas, United States (72653)
Lat: 36.34N, Lon: 92.39W
Wx Zone: ARZ005
Local Info
Past Weather Observations for Thursday, May 21, 2015

NOTE: This archive is for the closest National Weather Service station to Mountain Home. Information may differ from the station used for current weather conditions.

Click here for Long-term Archive

Time Weather Temperature Dewpoint Humidity Pressure Winds Precip Visibility
23:53
Overcast
54°F / 12°C 46°F / 8°C 77% 30.15 in
(1021 mb)
Variable 3.5 mph
(Variable 6 kph)
- 10SM
22:53
Overcast
54°F / 12°C 48°F / 9°C 82% 30.15 in
(1021 mb)
Variable 4.6 mph
(Variable 7 kph)
- 10SM
21:53
Overcast
55°F / 13°C 52°F / 11°C 88% 30.12 in
(1020 mb)
Variable 3.5 mph
(Variable 6 kph)
0.00 in
(0.00 mm)
10SM
20:53
Overcast
Fog And Mist
55°F / 13°C 54°F / 12°C 94% 30.12 in
(1020 mb)
Variable 6.9 mph
(Variable 11 kph)
- 6SM
20:27
Overcast
57°F / 14°C 55°F / 13°C 94% 30.09 in
(1019 mb)
NNW 5.8 mph
(NNW 9 kph)
- 8SM
20:03
Overcast
57°F / 14°C 55°F / 13°C 94% 30.09 in
(1019 mb)
NNW 3.5 mph
(NNW 6 kph)
- 10SM
19:53
Overcast
Fog And Mist
57°F / 14°C 55°F / 13°C 94% 30.09 in
(1019 mb)
NW 5.8 mph
(NW 9 kph)
0.00 in
(0.00 mm)
6SM
19:28
Overcast
Fog And Mist
57°F / 14°C 55°F / 13°C 94% 30.06 in
(1018 mb)
NW 4.6 mph
(NW 7 kph)
- 6SM
19:21
Overcast
57°F / 14°C 55°F / 13°C 94% 30.06 in
(1018 mb)
NW 4.6 mph
(NW 7 kph)
- 8SM
18:53
Overcast
57°F / 14°C 55°F / 13°C 94% 30.06 in
(1018 mb)
Variable 4.6 mph
(Variable 7 kph)
- 9SM
18:15
Overcast
59°F / 15°C 55°F / 13°C 88% 30.06 in
(1018 mb)
Variable 4.6 mph
(Variable 7 kph)
- 8SM
17:53
Overcast
61°F / 16°C 55°F / 13°C 83% 30.04 in
(1017 mb)
Variable 5.8 mph
(Variable 9 kph)
- 10SM
16:53
Overcast
63°F / 17°C 57°F / 14°C 83% 30.04 in
(1017 mb)
Variable 6.9 mph
(Variable 11 kph)
- 10SM
15:53
Overcast
64°F / 18°C 57°F / 14°C 78% 30.01 in
(1016 mb)
WNW 9.2 mph
(WNW 15 kph)
- 10SM
14:53
Overcast
66°F / 19°C 63°F / 17°C 88% 30.01 in
(1016 mb)
WNW 8.1 mph
(WNW 13 kph)
- 10SM
14:38
Overcast
66°F / 19°C 63°F / 17°C 88% 30.01 in
(1016 mb)
WNW 8.1 mph
(WNW 13 kph)
- 10SM
14:00
Overcast
66°F / 19°C 64°F / 18°C 94% 29.98 in
(1015 mb)
Variable 4.6 mph
(Variable 7 kph)
- 9SM
13:53
Overcast
66°F / 19°C 64°F / 18°C 94% 29.98 in
(1015 mb)
Calm - 10SM
13:09
Overcast
66°F / 19°C 63°F / 17°C 88% 29.98 in
(1015 mb)
Calm - 9SM
12:53
Overcast
64°F / 18°C 63°F / 17°C 94% 29.98 in
(1015 mb)
Calm - 8SM
11:53
Overcast
61°F / 16°C 61°F / 16°C 100% 29.98 in
(1015 mb)
SE 3.5 mph
(SE 6 kph)
0.00 in
(0.00 mm)
7SM
11:23
Overcast
61°F / 16°C 59°F / 15°C 94% 30.01 in
(1016 mb)
SE 5.8 mph
(SE 9 kph)
0.00 in
(0.00 mm)
8SM
10:53
Overcast
Light Rain
59°F / 15°C 59°F / 15°C 100% 30.01 in
(1016 mb)
ESE 4.6 mph
(ESE 7 kph)
0.04 in
(1.02 mm)
3SM
09:53
Overcast
Light Rain
57°F / 14°C 57°F / 14°C 100% 30.01 in
(1016 mb)
Variable 4.6 mph
(Variable 7 kph)
0.03 in
(0.76 mm)
7SM
08:53
Overcast
Light Rain
57°F / 14°C 55°F / 13°C 94% 30.04 in
(1017 mb)
ESE 5.8 mph
(ESE 9 kph)
0.03 in
(0.76 mm)
4SM
08:06
Overcast
Light Rain
55°F / 13°C 55°F / 13°C 100% 30.04 in
(1017 mb)
ESE 6.9 mph
(ESE 11 kph)
0.00 in
(0.00 mm)
7SM
07:53
Overcast
Light Rain
55°F / 13°C 55°F / 13°C 100% 30.01 in
(1016 mb)
SE 9.2 mph
(SE 15 kph)
0.05 in
(1.27 mm)
7SM
07:24
Overcast
Light Rain
55°F / 13°C 55°F / 13°C 100% 30.01 in
(1016 mb)
SE 10.4 mph
(SE 17 kph)
0.04 in
(1.02 mm)
5SM
07:15
Overcast
Rain
55°F / 13°C 55°F / 13°C 100% 30.01 in
(1016 mb)
SE 12.7 mph
(SE 20 kph)
0.03 in
(0.76 mm)
4SM
07:05
Overcast
Rain
55°F / 13°C 55°F / 13°C 100% 30.01 in
(1016 mb)
E 9.2 mph
(E 15 kph)
0.02 in
(0.51 mm)
5SM
06:53
Overcast
Rain
55°F / 13°C 55°F / 13°C 100% 30.01 in
(1016 mb)
E 9.2 mph
(E 15 kph)
0.13 in
(3.30 mm)
4SM
06:45
Overcast
Rain
55°F / 13°C 55°F / 13°C 100% 30.01 in
(1016 mb)
E 9.2 mph
(E 15 kph)
0.11 in
(2.79 mm)
4SM
05:53
Overcast
Rain
55°F / 13°C 55°F / 13°C 100% 30.01 in
(1016 mb)
SE 8.1 mph
(SE 13 kph)
0.09 in
(2.29 mm)
6SM
04:53
Overcast
Rain
57°F / 14°C 55°F / 13°C 94% 30.01 in
(1016 mb)
SE 10.4 mph
(SE 17 kph)
0.15 in
(3.81 mm)
6SM
03:53
Overcast
Rain
57°F / 14°C 55°F / 13°C 94% 30.01 in
(1016 mb)
SE 9.2 mph
(SE 15 kph)
0.06 in
(1.52 mm)
6SM
03:30
Overcast
Rain
59°F / 15°C 55°F / 13°C 88% 30.01 in
(1016 mb)
ESE 9.2 mph
(ESE 15 kph)
0.03 in
(0.76 mm)
8SM
02:53
Overcast
Light Rain
61°F / 16°C 54°F / 12°C 77% 30.01 in
(1016 mb)
SE 8.1 mph
(SE 13 kph)
0.00 in
(0.00 mm)
10SM
01:53
Overcast
Light Rain
63°F / 17°C 55°F / 13°C 77% 30.04 in
(1017 mb)
ESE 9.2 mph
(ESE 15 kph)
0.00 in
(0.00 mm)
10SM
00:53
Overcast
Light Rain
63°F / 17°C 57°F / 14°C 83% 30.04 in
(1017 mb)
ESE 10.4 mph
(ESE 17 kph)
0.00 in
(0.00 mm)
10SM
00:49
Overcast
Light Rain
63°F / 17°C 57°F / 14°C 83% 30.04 in
(1017 mb)
E 10.4 mph
(E 17 kph)
0.00 in
(0.00 mm)
10SM
00:23
Overcast
64°F / 18°C 57°F / 14°C 78% 30.06 in
(1018 mb)
SE 6.9 mph
(SE 11 kph)
- 10SM
Time Weather Temperature Dewpoint Humidity Pressure Winds Precip Visibility


Weather for websites

WeatherForYou.com, LLC is not responsible for any damages or problems caused by this service. Current weather conditions are obtained from the closest station including government and personal stations which may have varying degrees of accuracy. Weather forecasts are derived from the NOAA NDFD. Like all things, this site belongs to Jesus Christ... He just trusts us to maintain it. If you have any questions or comments email webmaster@weatherforyou.com

Copyright © 2015, WeatherForYou.com LLC. All rights reserved.